Overview Statistics Trail Chart Weather Telemetry Raw packets
 

This is the latest recevied weather packets stored in our database for station/object AI5BL. If no packets are shown the sender has not sent any weather packets the latest 10 day(s).

<< 73 74 75 76 77 78 79 >>
Time Temp. Humidity Pressure Rain* Wind** Luminosity Snow
1788130770 31.67° C 59% 1017.7 hPa 0 mm - 64 W/m² -
1788130466 31.67° C 59% 1017.9 hPa 0 mm - 63 W/m² -
1788130166 31.67° C 59% 1018 hPa 0 mm - 50 W/m² -
1788129864 31.11° C 61% 1018 hPa 0 mm - 45 W/m² -
1788129561 31.67° C 62% 1018 hPa 0 mm - 41 W/m² -
1788129258 32.78° C 54% 1018 hPa 0 mm - 38 W/m² -
1788128956 33.33° C 59% 1018.1 hPa 0 mm - 38 W/m² -
1788128652 33.33° C 53% 1017.9 hPa 0 mm - 37 W/m² -
1788128348 33.33° C 54% 1017.9 hPa 0 mm - 39 W/m² -
1788128044 33.33° C 53% 1017.9 hPa 0 mm - 37 W/m² -
1788127740 32.78° C 53% 1017.9 hPa 0 mm - 50 W/m² -
1788127439 32.78° C 54% 1017.7 hPa 0 mm - 48 W/m² -
1788127136 32.78° C 53% 1017.8 hPa 0 mm - 43 W/m² -
1788126836 33.33° C 55% 1017.7 hPa 0 mm - 54 W/m² -
1788126531 33.33° C 53% 1017.8 hPa 0 mm - 65 W/m² -
1788126226 33.33° C 53% 1017.8 hPa 0 mm - 45 W/m² -
1788125921 33.33° C 53% 1017.9 hPa 0 mm - 82 W/m² -
1788125616 33.33° C 55% 1017.9 hPa 0 mm - 64 W/m² -
1788125312 33.33° C 52% 1018.1 hPa 0 mm - 100 W/m² -
1788125008 32.78° C 56% 1018.1 hPa 0 mm - 67 W/m² -
1788124706 33.33° C 53% 1018 hPa 0 mm - 50 W/m² -
1788124401 33.33° C 52% 1018.2 hPa 0 mm - 53 W/m² -
1788124097 33.33° C 53% 1018.1 hPa 0 mm - 111 W/m² -
1788123796 33.33° C 52% 1018.2 hPa 0 mm - 123 W/m² -
1788123494 33.89° C 56% 1018.3 hPa 0 mm - 147 W/m² -

* Rain latest hour (hover to see other rain measurements)
** Current wind speed in m/s (hover to see current wind gust speed)